Regional Weather Roundup
Issued by NWS

Home | Current Version | Previous Version | Graphics & Text | Print | Product List | Glossary On
Versions: 1 2 3 4 5 6 7 8 9 10 11 12 13 14 15 16 17 18 19 20 21 22 23 24 25 26 27 28 29 30 31 32 33 34 35 36 37 38 39 40 41 42 43 44 45 46 47 48 49 50
000
ASUS43 KDTX 291910
RWRMI
MICHIGAN HOURLY REGIONAL WEATHER ROUNDUP
NATIONAL WEATHER SERVICE DETROIT/PONTIAC MI
300 PM EDT SUN MAY 29 2016

NOTE: "FAIR" INDICATES FEW OR NO CLOUDS BELOW 12,000 FEET WITH NO
SIGNIFICANT WEATHER AND/OR OBSTRUCTION TO VISIBILITY.

MIZ047>049-052>055-059>063-066>070-074>076-081>083-292000-
SOUTHEAST LOWER MICHIGAN

CITY           SKY/WX    TMP DP  RH WIND       PRES   REMARKS
ADRIAN         MOSUNNY   87  59  38 SW16      29.98F
ALMA           PTSUNNY   78  56  45 SW14G28   29.96S
ANN ARBOR      MOSUNNY   85  63  47 SW14      29.97F
BAD AXE        CLOUDY    81  61  50 SW10G22   29.94F
CARO           MOSUNNY   84  64  49 SW15      29.94F
DETROIT CITY   PTSUNNY   85  65  51 SW15G24   29.98F
DETROIT        PTSUNNY   84  64  50 S16G23    29.98F
FLINT          MOSUNNY   87  62  43 W16G22    29.95F
GROSSE ILE     MOSUNNY   77  70  78 SE8       29.98F
HILLSDALE      MOSUNNY   84  53  34 W14       30.01S
HOWELL         PTSUNNY   81  61  50 S10G17    29.98S

CITY           SKY/WX    TMP DP  RH WIND       PRES   REMARKS
JACKSON        MOSUNNY   83  61  47 SW14G24   29.98F
LAMBERTVILLE   MOSUNNY   87  63  44 SW9G17    29.99F
LANSING        MOSUNNY   83  61  47 SW16G23   29.97F
LAPEER         PTSUNNY   85  56  37 S17G24    29.96F
MASON          PTSUNNY   82  60  47 SW7G17    29.97F
MONROE         CLOUDY    86  67  52 S17G23    29.98F
PONTIAC        CLOUDY    85  61  44 S9        29.96F
PORT HOPE        N/A     81  63  54 SW8       29.92F
PORT HURON     CLOUDY    81  66  61 S12       29.97F
TRI CITIES     PTSUNNY   83  60  45 SW15      29.94F
MIDLAND        FAIR      83  58  41 SW17G24   29.92F
TROY           PTSUNNY   84  60  43 SW12G21   30.00F
SAGINAW HB     MOSUNNY   82  59  44 SW15G25   29.93F
$$
MIZ043>046-050>051-056>058-064>065-071>073-077>080-292000-
SOUTHWEST LOWER MICHIGAN

CITY           SKY/WX    TMP DP  RH WIND       PRES   REMARKS
BATTLE CREEK   PTSUNNY   80  57  45 W16       30.00S
BENTON HARBOR  SUNNY     77  60  55 W14       30.01R
BIG RAPIDS     PTSUNNY   75  60  60 SW15G25   29.95S
COLDWATER      MOSUNNY   82  57  43 W14G24    30.00S
FREMONT        PTSUNNY   75  59  56 SW20G25   29.96F
HOLLAND        PTSUNNY   78  61  55 SW18G24   30.00S
GRAND RAPIDS   MOSUNNY   82  56  40 W24G31    29.98S
IONIA          FAIR      82  53  35 SW20G30   29.96F
KALAMAZOO      MOSUNNY   82  56  40 SW15      29.99F
LUDINGTON      CLOUDY    68  59  74 SW16      29.95S
MARSHALL       PTSUNNY   84  58  42 SW14G22   29.98F
MOUNT PLEASANT PTSUNNY   82  57  43 SW13G28   29.94S
MUSKEGON       PTSUNNY   75  58  55 SW17      29.98S
SOUTH HAVEN    MOSUNNY   76  59  55 W10G17    30.00S
$$
MIZ016>042-292000-
NORTHERN LOWER MICHIGAN

CITY           SKY/WX    TMP DP  RH WIND       PRES   REMARKS
ALPENA         MOSUNNY   85  57  38 SW16G22   29.87F
BEAVER ISLAND  SUNNY     70  59  68 SW15G24   29.88R
BELLAIRE       CLOUDY    76  56  49 SW9       29.88S
CADILLAC       PTSUNNY   75  58  54 SW23G31   29.93S
CHARLEVOIX     CLOUDY    71  59  66 W16       29.91F
FRANKFORT      PTSUNNY   65  59  81 SW13G21   29.91F
GAYLORD        CLOUDY    77  53  43 SW15      29.90F
GRAYLING       CLOUDY    79  56  45 SW13G21   29.92F
HARBOR SPRINGS LGT RAIN  66  61  85 W9        29.88R
HOUGHTON LAKE  PTSUNNY   78  55  44 SW20G26   29.93F
MANISTEE       PTSUNNY   73  57  56 SW13G28   29.93S
OSCODA         PTSUNNY   83  60  46 S15G28    29.90F
PELLSTON       PTSUNNY   76  57  51 SW20G26   29.87F
ROGERS CITY    MOSUNNY   82  54  38 SW15G24   29.87S
TRAVERSE CITY  CLOUDY    76  60  57 W12G20    29.87S
$$
MIZ007>008-015-292000-
EASTERN UPPER MICHIGAN

CITY           SKY/WX    TMP DP  RH WIND       PRES   REMARKS
KINROSS          N/A     79  59  50 SW8G25    29.86F
MACKINAC ISLAN PTSUNNY   71  59  66 W15       29.86S
NEWBERRY       PTSUNNY   71  60  67 SW22G31   29.84F
S. S. MARIE    SUNNY     78  58  49 SW18G25   29.84F
MUNISING         N/A     70  60  70 SW8G18    29.81R
$$
MIZ004>006-011>014-085-292000-
CENTRAL UPPER MICHIGAN

CITY           SKY/WX    TMP DP  RH WIND       PRES   REMARKS
MANISTIQUE     CLOUDY    55  54  97 S6        29.86S FOG
ESCANABA       PTSUNNY   63  61  94 S6        29.82S
MENOMINEE      CLOUDY    72  63  73 SW10      29.84F
SAWYER-GWINN   PTSUNNY   66  63  88 S10       29.82R
$$
MIZ001>003-009>011-084-292000-
WESTERN UPPER MICHIGAN

CITY           SKY/WX    TMP DP  RH WIND       PRES   REMARKS
HOUGHTON       CLOUDY    64  57  78 W15G24    29.79R
COPPER HARBOR    N/A     54  52  93 N8        29.77R
IRONWOOD       PTSUNNY   66  63  88 W14       29.81R
$$

ABBREVIATIONS USED IN REMARKS
   TC - TEMPERATURE IN CELSIUS
  WCI - WIND CHILL INDEX
   HX - HEAT INDEX
  VSB - VISIBILITY





USA.gov is the U.S. government's official web portal to all federal, state and local government web resources and services.